Willmar, MN

4:52 AM CDT on July 22, 2017 (GMT -0500)
Willmar

Weather History for KBDH - March, 2013

Change the Weather History Date:

Sunday, March 24, 2013

  Actual Average (KBBB) Record (KBBB)
Temperature  
Mean Temperature 28 °F -  
Max Temperature 35 °F 43 °F 73 °F (2012)
Min Temperature 21 °F 25 °F -10 °F (1974)
Degree Days  
Heating Degree Days 37    
Moisture  
Dew Point 17 °F    
Average Humidity 62    
Maximum Humidity 70    
Minimum Humidity 48    
Precipitation  
Precipitation 0.00 in - - ()
Sea Level Pressure  
Sea Level Pressure 30.07 in    
Wind  
Wind Speed 8 mph (NNW)    
Max Wind Speed 15 mph    
Max Gust Speed 18 mph    
Visibility 7 miles    
Events Snow    
Averages and records for this station are not official NWS values.
T = Trace of Precipitation, MM = Missing Value Source: NWS Daily Summary

Daily Weather History Graph

Daily Weather History Graph

Search for Another Location

Airport or City:

Trip Planner

Search our weather history database for the weather conditions in past years. The results will help you decide how hot, cold, wet, or windy it might be!

Date:

Astronomy

Mar. 24, 2013 Rise Set
Actual Time 7:15 AM CDT 7:38 PM CDT
Civil Twilight 6:46 AM CDT 8:08 PM CDT
Nautical Twilight 6:11 AM CDT 8:42 PM CDT
Astronomical Twilight 5:35 AM CDT 9:18 PM CDT
Moon 5:02 PM CDT (3/24) 5:32 AM CDT (3/24)
Length of Visible Light 13h 21m
Length of Day
12h 22m
Waxing Gibbous, 92% of the Moon is Illuminated
Mar 24
Waxing Gibbous
Mar 27
Full
Apr 2
Last Quarter
Apr 10
New
Apr 18
First Quarter

Hourly Weather History & Observations

Time (CDT) Temp. Windchill Dew Point Humidity Pressure Visibility Wind Dir Wind Speed Gust Speed Precip Events Conditions
12:15 AM 24.8 °F 16.9 °F 14.0 °F 64% 30.13 in 10.0 mi NW 6.9 mph - N/A   Scattered Clouds
12:35 AM 24.8 °F 15.3 °F 15.8 °F 69% 30.13 in 10.0 mi NW 9.2 mph - N/A   Scattered Clouds
12:55 AM 24.8 °F 15.3 °F 15.8 °F 69% 30.12 in 10.0 mi NW 9.2 mph - N/A   Scattered Clouds
1:15 AM 24.8 °F 16.9 °F 15.8 °F 69% 30.12 in 10.0 mi NW 6.9 mph - N/A   Clear
1:35 AM 24.8 °F 16.9 °F 15.8 °F 69% 30.12 in 10.0 mi NW 6.9 mph - N/A   Clear
1:55 AM 24.8 °F 17.9 °F 15.8 °F 69% 30.12 in 10.0 mi NW 5.8 mph - N/A   Clear
2:15 AM 24.8 °F 16.9 °F 15.8 °F 69% 30.11 in 10.0 mi NW 6.9 mph - N/A   Clear
2:35 AM 24.8 °F 16.9 °F 14.0 °F 64% 30.11 in 10.0 mi NW 6.9 mph - N/A   Clear
2:55 AM 24.8 °F 16.9 °F 15.8 °F 69% 30.11 in 10.0 mi WNW 6.9 mph - N/A   Clear
3:15 AM 24.8 °F 17.9 °F 15.8 °F 69% 30.11 in 10.0 mi WNW 5.8 mph - N/A   Clear
3:35 AM 24.8 °F 19.1 °F 15.8 °F 69% 30.11 in 10.0 mi WNW 4.6 mph - N/A   Scattered Clouds
3:55 AM 24.8 °F 17.9 °F 15.8 °F 69% 30.10 in 10.0 mi WNW 5.8 mph - N/A   Mostly Cloudy
4:15 AM 24.8 °F 16.9 °F 14.0 °F 64% 30.09 in 10.0 mi WNW 6.9 mph - N/A   Scattered Clouds
4:35 AM 24.8 °F 16.9 °F 14.0 °F 64% 30.09 in 10.0 mi NW 6.9 mph - N/A   Overcast
4:55 AM 24.8 °F 19.1 °F 14.0 °F 64% 30.09 in 10.0 mi WNW 4.6 mph - N/A   Overcast
5:15 AM 23.0 °F 13.1 °F 14.0 °F 68% 30.09 in 10.0 mi WNW 9.2 mph - N/A   Overcast
5:35 AM 23.0 °F 13.1 °F 14.0 °F 68% 30.09 in 7.0 mi NW 9.2 mph - N/A   Overcast
5:55 AM 23.0 °F 13.1 °F 14.0 °F 68% 30.08 in 5.0 mi WNW 9.2 mph - N/A Snow Light Snow
6:15 AM 23.0 °F 12.4 °F 14.0 °F 68% 30.08 in 5.0 mi NW 10.4 mph - N/A Snow Light Snow
6:35 AM 23.0 °F 11.7 °F 14.0 °F 68% 30.08 in 7.0 mi NW 11.5 mph - N/A   Overcast
6:55 AM 23.0 °F 13.1 °F 14.0 °F 68% 30.08 in 4.0 mi WNW 9.2 mph - N/A Snow Light Snow
7:15 AM 21.2 °F 9.5 °F 12.2 °F 68% 30.08 in 3.0 mi NW 11.5 mph - N/A Snow Light Snow
7:35 AM 21.2 °F 10.9 °F 12.2 °F 68% 30.08 in 4.0 mi NW 9.2 mph - N/A   Haze
7:55 AM 21.2 °F 10.9 °F 12.2 °F 68% 30.07 in 7.0 mi NW 9.2 mph - N/A   Mostly Cloudy
8:15 AM 21.2 °F 10.9 °F 12.2 °F 68% 30.07 in 7.0 mi NW 9.2 mph - N/A   Scattered Clouds
8:35 AM 21.2 °F 10.9 °F 12.2 °F 68% 30.07 in 7.0 mi NW 9.2 mph - N/A   Scattered Clouds
8:55 AM 23.0 °F 14.7 °F 12.2 °F 63% 30.07 in 7.0 mi NNW 6.9 mph - N/A   Clear
9:15 AM 23.0 °F 13.9 °F 14.0 °F 68% 30.06 in 4.0 mi NNW 8.1 mph - N/A   Haze
9:35 AM 24.8 °F 17.9 °F 14.0 °F 64% 30.06 in 3.0 mi NNW 5.8 mph - N/A   Haze
9:55 AM 24.8 °F 17.9 °F 15.8 °F 69% 30.06 in 2.5 mi NNW 5.8 mph - N/A   Haze
10:16 AM 26.6 °F 20.0 °F 15.8 °F 64% 30.06 in 4.0 mi North 5.8 mph - N/A Snow Light Snow
10:35 AM 26.6 °F 21.2 °F 15.8 °F 64% 30.06 in 4.0 mi North 4.6 mph - N/A   Haze
10:55 AM 28.4 °F 24.6 °F 17.6 °F 64% 30.06 in 2.5 mi North 3.5 mph - N/A Snow Light Snow
11:14 AM 28.4 °F 23.3 °F 17.6 °F 64% 30.05 in 3.0 mi North 4.6 mph - N/A Snow Light Snow
11:35 AM 30.2 °F - 19.4 °F 64% 30.05 in 3.0 mi Calm Calm - N/A Snow Light Snow
11:55 AM 32.0 °F 28.7 °F 21.2 °F 64% 30.05 in 2.0 mi NNE 3.5 mph - N/A Snow Light Snow
12:15 PM 33.8 °F - 21.2 °F 60% 30.05 in 1.5 mi Calm Calm - N/A Snow Light Snow
12:35 PM 33.8 °F 29.6 °F 21.2 °F 60% 30.05 in 1.8 mi NNE 4.6 mph - N/A Snow Light Snow
12:55 PM 33.8 °F 27.7 °F 21.2 °F 60% 30.05 in 1.8 mi NE 6.9 mph - N/A Snow Light Snow
1:15 PM 33.8 °F 27.7 °F 21.2 °F 60% 30.05 in 2.0 mi ENE 6.9 mph - N/A Snow Light Snow
1:36 PM 33.8 °F 27.7 °F 19.4 °F 56% 30.05 in 5.0 mi ENE 6.9 mph - N/A Snow Light Snow
1:55 PM 35.6 °F 30.7 °F 21.2 °F 56% 30.05 in 2.5 mi NNE 5.8 mph - N/A Snow Light Snow
2:15 PM 33.8 °F 29.6 °F 24.8 °F 70% 30.05 in 2.0 mi North 4.6 mph - N/A Snow Light Snow
2:36 PM 35.6 °F 29.2 °F 21.2 °F 56% 30.04 in 4.0 mi North 8.1 mph - N/A Snow Light Snow
2:55 PM 35.6 °F 27.5 °F 21.2 °F 56% 30.04 in 3.0 mi North 11.5 mph - N/A Snow Light Snow
3:15 PM 35.6 °F 27.1 °F 21.2 °F 56% 30.03 in 7.0 mi North 12.7 mph - N/A Snow Light Snow
3:36 PM 35.6 °F 27.5 °F 19.4 °F 52% 30.03 in 10.0 mi North 11.5 mph - N/A   Overcast
3:55 PM 35.6 °F 26.2 °F 19.4 °F 52% 30.03 in 10.0 mi North 15.0 mph 18.4 mph N/A   Mostly Cloudy
4:15 PM 35.6 °F 27.1 °F 17.6 °F 48% 30.03 in 10.0 mi North 12.7 mph - N/A   Scattered Clouds
4:35 PM 35.6 °F 28.0 °F 17.6 °F 48% 30.03 in 10.0 mi North 10.4 mph - N/A   Clear
4:55 PM 35.6 °F 28.0 °F 17.6 °F 48% 30.03 in 10.0 mi North 10.4 mph - N/A   Scattered Clouds
5:15 PM 35.6 °F 27.1 °F 17.6 °F 48% 30.04 in 10.0 mi North 12.7 mph - N/A   Clear
5:35 PM 35.6 °F 27.1 °F 19.4 °F 52% 30.04 in 10.0 mi NNW 12.7 mph - N/A   Scattered Clouds
5:55 PM 35.6 °F 27.1 °F 19.4 °F 52% 30.05 in 10.0 mi North 12.7 mph - N/A   Mostly Cloudy
6:15 PM 35.6 °F 28.0 °F 21.2 °F 56% 30.05 in 10.0 mi North 10.4 mph - N/A   Mostly Cloudy
6:35 PM 35.6 °F 26.6 °F 21.2 °F 56% 30.05 in 10.0 mi NNW 13.8 mph - N/A   Mostly Cloudy
6:55 PM 35.6 °F 27.1 °F 23.0 °F 60% 30.05 in 10.0 mi NNW 12.7 mph - N/A Snow Light Snow
7:15 PM 35.6 °F 26.6 °F 21.2 °F 56% 30.05 in 7.0 mi NNW 13.8 mph - N/A Snow Light Snow
7:35 PM 33.8 °F 24.3 °F 19.4 °F 56% 30.06 in 10.0 mi NNW 13.8 mph - N/A   Scattered Clouds
7:55 PM 33.8 °F 24.3 °F 19.4 °F 56% 30.06 in 10.0 mi NNW 13.8 mph - N/A   Clear
8:15 PM 33.8 °F 24.3 °F 19.4 °F 56% 30.06 in 10.0 mi NNW 13.8 mph - N/A   Scattered Clouds
8:35 PM 33.8 °F 24.3 °F 19.4 °F 56% 30.07 in 10.0 mi NNW 13.8 mph - N/A   Mostly Cloudy
8:55 PM 32.0 °F 22.1 °F 19.4 °F 60% 30.07 in 10.0 mi NW 13.8 mph - N/A   Mostly Cloudy
9:15 PM 32.0 °F 22.5 °F 19.4 °F 60% 30.08 in 10.0 mi NNW 12.7 mph - N/A   Mostly Cloudy
9:35 PM 32.0 °F 23.0 °F 19.4 °F 60% 30.08 in 10.0 mi NNW 11.5 mph - N/A   Overcast
9:55 PM 30.2 °F 20.2 °F 19.4 °F 64% 30.08 in 10.0 mi NW 12.7 mph - N/A   Overcast
10:15 PM 30.2 °F 19.8 °F 19.4 °F 64% 30.08 in 10.0 mi NNW 13.8 mph - N/A   Overcast
10:35 PM 32.0 °F 22.1 °F 17.6 °F 55% 30.08 in 10.0 mi NNW 13.8 mph - N/A   Overcast
10:55 PM 30.2 °F 20.8 °F 17.6 °F 60% 30.09 in 10.0 mi NNW 11.5 mph - N/A   Mostly Cloudy
11:15 PM 32.0 °F 23.0 °F 19.4 °F 60% 30.09 in 10.0 mi NNW 11.5 mph - N/A   Mostly Cloudy
11:35 PM 30.2 °F 20.8 °F 19.4 °F 64% 30.09 in 10.0 mi NNW 11.5 mph - N/A   Overcast
11:55 PM 32.0 °F 23.6 °F 19.4 °F 60% 30.09 in 7.0 mi NNW 10.4 mph - N/A Snow Light Snow